| time (UTC) | temp F | wind direction | speed MPH | gust MPH | rain 1hr in | rain 24hr in | rain mn in | humidity % | barometer mb |
| 20260505121404 | 76 | 179 | 3.0 | 15.0 | 0.00 | 0.00 | 0.00 | 32 | 1006.1 |
| 20260505120904 | 76 | 155 | 6.0 | 15.0 | 0.00 | 0.00 | 0.00 | 31 | 1006.1 |
| 20260505120404 | 76 | 108 | 6.0 | 14.0 | 0.00 | 0.00 | 0.00 | 30 | 1006.1 |
| 20260505115404 | 77 | 194 | 6.0 | 10.0 | 0.00 | 0.00 | 0.00 | 30 | 1006.2 |
| 20260505114404 | 77 | 132 | 3.0 | 12.0 | 0.00 | 0.00 | 0.00 | 30 | 1006.1 |
| 20260505113905 | 77 | 135 | 2.0 | 5.0 | 0.00 | 0.00 | 0.00 | 31 | 1006.2 |
| 20260505113404 | 77 | 104 | 3.0 | 13.0 | 0.00 | 0.00 | 0.00 | 31 | 1006.3 |
| 20260505112904 | 77 | 205 | 5.0 | 15.0 | 0.00 | 0.00 | 0.00 | 30 | 1006.3 |
| 20260505112404 | 77 | 121 | 5.0 | 14.0 | 0.00 | 0.00 | 0.00 | 32 | 1006.3 |
| 20260505111904 | 77 | 136 | 5.0 | 20.0 | 0.00 | 0.00 | 0.00 | 32 | 1006.3 |
| 20260505111404 | 77 | 123 | 4.0 | 14.0 | 0.00 | 0.00 | 0.00 | 31 | 1006.4 |
| 20260505110904 | 77 | 128 | 3.0 | 17.0 | 0.00 | 0.00 | 0.00 | 31 | 1006.4 |
| 20260505110404 | 77 | 170 | 5.0 | 13.0 | 0.00 | 0.00 | 0.00 | 30 | 1006.4 |
| 20260505101905 | 77 | 164 | 7.0 | 14.0 | 0.00 | 0.00 | 0.00 | 30 | 1007.0 |
| 20260505101405 | 77 | 185 | 6.0 | 15.0 | 0.00 | 0.00 | 0.00 | 31 | 1006.9 |
| 20260505100904 | 77 | 149 | 3.0 | 12.0 | 0.00 | 0.00 | 0.00 | 31 | 1006.9 |
| 20260505095905 | 76 | 93 | 3.0 | 12.0 | 0.00 | 0.00 | 0.00 | 31 | 1006.9 |
| 20260505095405 | 76 | 158 | 3.0 | 10.0 | 0.00 | 0.00 | 0.00 | 32 | 1006.8 |
| 20260505094404 | 75 | 136 | 4.0 | 13.0 | 0.00 | 0.00 | 0.00 | 32 | 1007.1 |
| 20260505093904 | 75 | 193 | 3.0 | 10.0 | 0.00 | 0.00 | 0.00 | 33 | 1007.1 |
| 20260505093405 | 75 | 102 | 3.0 | 8.0 | 0.00 | 0.00 | 0.00 | 32 | 1007.1 |
| 20260505092904 | 74 | 156 | 4.0 | 13.0 | 0.00 | 0.00 | 0.00 | 33 | 1007.3 |
| 20260505092405 | 74 | 174 | 6.0 | 12.0 | 0.00 | 0.00 | 0.00 | 34 | 1007.3 |
| 20260505091905 | 74 | 151 | 4.0 | 9.0 | 0.00 | 0.00 | 0.00 | 34 | 1007.3 |
| 20260505091405 | 73 | 142 | 3.0 | 9.0 | 0.00 | 0.00 | 0.00 | 33 | 1007.4 |
| 20260505090904 | 73 | 197 | 4.0 | 12.0 | 0.00 | 0.00 | 0.00 | 34 | 1007.5 |
| 20260505090404 | 73 | 160 | 2.0 | 9.0 | 0.00 | 0.00 | 0.00 | 34 | 1007.5 |
| 20260505085904 | 73 | 164 | 4.0 | 7.0 | 0.00 | 0.00 | 0.00 | 34 | 1007.5 |
| 20260505085404 | 73 | 147 | 3.0 | 7.0 | 0.00 | 0.00 | 0.00 | 34 | 1007.4 |
| 20260505084904 | 73 | 161 | 7.0 | 17.0 | 0.00 | 0.00 | 0.00 | 33 | 1007.5 |
| 20260505084419 | 73 | 142 | 6.0 | 14.0 | 0.00 | 0.00 | 0.00 | 33 | 1007.4 |
| 20260505083904 | 73 | 159 | 4.0 | 13.0 | 0.00 | 0.00 | 0.00 | 36 | 1007.5 |
| 20260505083404 | 73 | 196 | 3.0 | 7.0 | 0.00 | 0.00 | 0.00 | 37 | 1007.5 |
| 20260505082904 | 72 | 91 | 5.0 | 10.0 | 0.00 | 0.00 | 0.00 | 36 | 1007.5 |
| 20260505081904 | 72 | 160 | 2.0 | 9.0 | 0.00 | 0.00 | 0.00 | 37 | 1007.6 |
| 20260505081404 | 72 | 186 | 3.0 | 12.0 | 0.00 | 0.00 | 0.00 | 37 | 1007.6 |
| 20260505080904 | 72 | 156 | 4.0 | 15.0 | 0.00 | 0.00 | 0.00 | 36 | 1007.6 |
| 20260505080404 | 72 | 169 | 4.0 | 12.0 | 0.00 | 0.00 | 0.00 | 36 | 1007.6 |
| 20260505075904 | 72 | 131 | 6.0 | 13.0 | 0.00 | 0.00 | 0.00 | 35 | 1007.6 |
| 20260505075405 | 72 | 174 | 6.0 | 15.0 | 0.00 | 0.00 | 0.00 | 36 | 1007.5 |
| 20260505074904 | 71 | 155 | 1.0 | 6.0 | 0.00 | 0.00 | 0.00 | 39 | 1007.5 |
| 20260505073404 | 69 | 44 | 2.0 | 6.0 | 0.00 | 0.00 | 0.00 | 42 | 1007.4 |
| 20260505072904 | 69 | 83 | 1.0 | 7.0 | 0.00 | 0.00 | 0.00 | 44 | 1007.5 |
| 20260505072404 | 68 | 56 | 4.0 | 8.0 | 0.00 | 0.00 | 0.00 | 43 | 1007.4 |
| 20260505071404 | 67 | 324 | 3.0 | 12.0 | 0.00 | 0.00 | 0.00 | 43 | 1007.6 |
| 20260505070904 | 67 | 51 | 1.0 | 8.0 | 0.00 | 0.00 | 0.00 | 44 | 1007.6 |
| 20260505070405 | 67 | 45 | 3.0 | 8.0 | 0.00 | 0.00 | 0.00 | 43 | 1007.6 |
| 20260505065904 | 67 | 42 | 6.0 | 14.0 | 0.00 | 0.00 | 0.00 | 44 | 1007.6 |
| 20260505064904 | 66 | 61 | 2.0 | 6.0 | 0.00 | 0.00 | 0.00 | 44 | 1007.7 |
| 20260505064404 | 66 | 29 | 2.0 | 7.0 | 0.00 | 0.00 | 0.00 | 45 | 1007.8 |
| 20260505063904 | 66 | 94 | 1.0 | 7.0 | 0.00 | 0.00 | 0.00 | 45 | 1007.9 |
| 20260505063404 | 66 | 90 | 1.0 | 5.0 | 0.00 | 0.00 | 0.00 | 45 | 1008.0 |
| 20260505062905 | 66 | 125 | 1.0 | 5.0 | 0.00 | 0.00 | 0.00 | 45 | 1007.9 |
| 20260505062404 | 65 | 37 | 1.0 | 5.0 | 0.00 | 0.00 | 0.00 | 45 | 1008.0 |
| 20260505061904 | 65 | 257 | 1.0 | 5.0 | 0.00 | 0.00 | 0.00 | 45 | 1008.0 |
| 20260505061404 | 65 | 63 | 3.0 | 12.0 | 0.00 | 0.00 | 0.00 | 45 | 1007.9 |
| 20260505060905 | 65 | 137 | 1.0 | 5.0 | 0.00 | 0.00 | 0.00 | 46 | 1007.9 |
| 20260505060404 | 65 | 278 | 2.0 | 6.0 | 0.00 | 0.00 | 0.00 | 45 | 1007.9 |
| 20260505055904 | 64 | 58 | 2.0 | 12.0 | 0.00 | 0.00 | 0.00 | 45 | 1007.9 |
| 20260505055404 | 64 | 78 | 0.0 | 8.0 | 0.00 | 0.00 | 0.00 | 46 | 1007.8 |
| 20260505053404 | 63 | 31 | 3.0 | 7.0 | 0.00 | 0.00 | 0.00 | 48 | 1007.6 |
| 20260505052905 | 63 | 62 | 2.0 | 8.0 | 0.00 | 0.00 | 0.00 | 48 | 1007.7 |
| 20260505051905 | 63 | 110 | 2.0 | 7.0 | 0.00 | 0.00 | 0.00 | 47 | 1007.7 |
| 20260505051404 | 63 | 106 | 2.0 | 8.0 | 0.00 | 0.00 | 0.00 | 47 | 1007.7 |
| 20260505050904 | 62 | 72 | 2.0 | 7.0 | 0.00 | 0.00 | 0.00 | 47 | 1007.8 |
| 20260505050404 | 62 | 27 | 2.0 | 7.0 | 0.00 | 0.00 | 0.00 | 47 | 1007.8 |
| 20260505041404 | 59 | 87 | 2.0 | 8.0 | 0.00 | 0.00 | 0.00 | 49 | 1008.0 |
| 20260505040905 | 59 | 112 | 2.0 | 7.0 | 0.00 | 0.00 | 0.00 | 49 | 1008.0 |
| 20260505035904 | 59 | 67 | 2.0 | 8.0 | 0.00 | 0.00 | 0.00 | 49 | 1008.0 |
| 20260505035404 | 58 | 72 | 2.0 | 8.0 | 0.00 | 0.00 | 0.00 | 49 | 1008.1 |
| 20260505034905 | 58 | 61 | 2.0 | 6.0 | 0.00 | 0.00 | 0.00 | 49 | 1008.1 |
| 20260505034404 | 58 | 94 | 2.0 | 6.0 | 0.00 | 0.00 | 0.00 | 49 | 1008.2 |
| 20260505033920 | 58 | 40 | 0.0 | 2.0 | 0.00 | 0.00 | 0.00 | 49 | 1008.3 |
| 20260505033405 | 58 | 48 | 1.0 | 3.0 | 0.00 | 0.00 | 0.00 | 49 | 1008.3 |
| 20260505032904 | 58 | 66 | 1.0 | 3.0 | 0.00 | 0.00 | 0.00 | 49 | 1008.4 |
| 20260505032418 | 58 | 82 | 2.0 | 6.0 | 0.00 | 0.00 | 0.00 | 49 | 1008.4 |
| 20260505031904 | 58 | 51 | 1.0 | 6.0 | 0.00 | 0.00 | 0.00 | 49 | 1008.4 |
| 20260505030904 | 58 | 80 | 2.0 | 6.0 | 0.00 | 0.00 | 0.00 | 49 | 1008.5 |
| 20260505025904 | 58 | 79 | 1.0 | 5.0 | 0.00 | 0.00 | 0.00 | 50 | 1008.5 |
| 20260505025404 | 57 | 56 | 3.0 | 7.0 | 0.00 | 0.00 | 0.00 | 50 | 1008.5 |
| 20260505024904 | 57 | 78 | 3.0 | 7.0 | 0.00 | 0.00 | 0.00 | 51 | 1008.6 |
| 20260505024405 | 57 | 34 | 1.0 | 2.0 | 0.00 | 0.00 | 0.00 | 51 | 1008.6 |
| 20260505023904 | 57 | 84 | 2.0 | 3.0 | 0.00 | 0.00 | 0.00 | 51 | 1008.6 |
| 20260505023405 | 57 | 55 | 1.0 | 3.0 | 0.00 | 0.00 | 0.00 | 51 | 1008.7 |
| 20260505022904 | 57 | 65 | 2.0 | 3.0 | 0.00 | 0.00 | 0.00 | 52 | 1008.8 |
| 20260505022404 | 57 | 76 | 2.0 | 5.0 | 0.00 | 0.00 | 0.00 | 52 | 1008.8 |
| 20260505021904 | 57 | 56 | 2.0 | 5.0 | 0.00 | 0.00 | 0.00 | 52 | 1008.9 |
| 20260505021404 | 56 | 66 | 2.0 | 5.0 | 0.00 | 0.00 | 0.00 | 52 | 1008.9 |
| 20260505020905 | 56 | 81 | 3.0 | 7.0 | 0.00 | 0.00 | 0.00 | 52 | 1009.0 |
| 20260505015904 | 56 | 57 | 2.0 | 6.0 | 0.00 | 0.00 | 0.00 | 52 | 1009.1 |
| 20260505015404 | 56 | 83 | 2.0 | 3.0 | 0.00 | 0.00 | 0.00 | 53 | 1009.2 |
| 20260505014904 | 56 | 72 | 2.0 | 3.0 | 0.00 | 0.00 | 0.00 | 53 | 1009.2 |
| 20260505014404 | 56 | 71 | 2.0 | 3.0 | 0.00 | 0.00 | 0.00 | 53 | 1009.2 |
| 20260505013905 | 56 | 56 | 1.0 | 3.0 | 0.00 | 0.00 | 0.00 | 53 | 1009.3 |
| 20260505013404 | 56 | 81 | 2.0 | 3.0 | 0.00 | 0.00 | 0.00 | 53 | 1009.4 |
| 20260505012904 | 56 | 76 | 1.0 | 3.0 | 0.00 | 0.00 | 0.00 | 53 | 1009.5 |
| 20260505012404 | 56 | 80 | 1.0 | 3.0 | 0.00 | 0.00 | 0.00 | 52 | 1009.4 |
| 20260505011905 | 56 | 81 | 1.0 | 2.0 | 0.00 | 0.00 | 0.00 | 52 | 1009.5 |
| 20260505011404 | 57 | 82 | 1.0 | 3.0 | 0.00 | 0.00 | 0.00 | 52 | 1009.5 |
| 20260505010904 | 57 | 82 | 1.0 | 3.0 | 0.00 | 0.00 | 0.00 | 52 | 1009.5 |
| 20260505010404 | 57 | 82 | 1.0 | 3.0 | 0.00 | 0.00 | 0.00 | 52 | 1009.6 |
| 20260505005905 | 57 | 61 | 1.0 | 2.0 | 0.00 | 0.00 | 0.00 | 51 | 1009.7 |
| 20260505005404 | 57 | 84 | 1.0 | 3.0 | 0.00 | 0.00 | 0.00 | 52 | 1009.8 |
| 20260505004904 | 57 | 83 | 1.0 | 3.0 | 0.00 | 0.00 | 0.00 | 51 | 1009.8 |
| 20260505004404 | 57 | 79 | 0.0 | 2.0 | 0.00 | 0.00 | 0.00 | 51 | 1009.8 |
| 20260505003904 | 56 | 90 | 1.0 | 6.0 | 0.00 | 0.00 | 0.00 | 51 | 1009.8 |
| 20260505002905 | 56 | 92 | 1.0 | 5.0 | 0.00 | 0.00 | 0.00 | 52 | 1009.9 |
| 20260505002404 | 56 | 73 | 2.0 | 3.0 | 0.00 | 0.00 | 0.00 | 51 | 1009.9 |
| 20260505001904 | 56 | 92 | 2.0 | 3.0 | 0.00 | 0.00 | 0.00 | 51 | 1010.0 |
| 20260505001404 | 56 | 74 | 2.0 | 3.0 | 0.00 | 0.00 | 0.00 | 51 | 1010.1 |
| 20260505000905 | 57 | 86 | 0.0 | 3.0 | 0.00 | 0.00 | 0.00 | 52 | 1010.2 |
| 20260505000405 | 57 | 71 | 1.0 | 3.0 | 0.00 | 0.00 | 0.00 | 52 | 1010.2 |
| 20260504235904 | 57 | 88 | 1.0 | 3.0 | 0.00 | 0.00 | 0.00 | 52 | 1010.2 |
| 20260504235404 | 57 | 64 | 1.0 | 3.0 | 0.00 | 0.00 | 0.00 | 51 | 1010.2 |
| 20260504234904 | 57 | 88 | 1.0 | 2.0 | 0.00 | 0.00 | 0.00 | 50 | 1010.3 |
| 20260504234404 | 57 | 87 | 1.0 | 3.0 | 0.00 | 0.00 | 0.00 | 50 | 1010.3 |
| 20260504233904 | 57 | 63 | 1.0 | 3.0 | 0.00 | 0.00 | 0.00 | 50 | 1010.4 |
| 20260504233404 | 57 | 59 | 1.0 | 3.0 | 0.00 | 0.00 | 0.00 | 49 | 1010.3 |
| 20260504232904 | 57 | 59 | 1.0 | 2.0 | 0.00 | 0.00 | 0.00 | 50 | 1010.4 |
| 20260504232404 | 58 | 59 | 2.0 | 3.0 | 0.00 | 0.00 | 0.00 | 49 | 1010.4 |
| 20260504231904 | 57 | 59 | 0.0 | 23.0 | 0.00 | 0.00 | 0.00 | 49 | 1010.4 |
| 20260504231404 | 57 | 55 | 1.0 | 3.0 | 0.00 | 0.00 | 0.00 | 49 | 1010.5 |
| 20260504230904 | 57 | 54 | 1.0 | 3.0 | 0.00 | 0.00 | 0.00 | 49 | 1010.5 |
| 20260504230404 | 57 | 65 | 1.0 | 3.0 | 0.00 | 0.00 | 0.00 | 49 | 1010.5 |
| 20260504225904 | 57 | 65 | 1.0 | 2.0 | 0.00 | 0.00 | 0.00 | 49 | 1010.6 |
| 20260504225405 | 57 | 65 | 1.0 | 2.0 | 0.00 | 0.00 | 0.00 | 49 | 1010.6 |
| 20260504224904 | 57 | 65 | 0.0 | 2.0 | 0.00 | 0.00 | 0.00 | 50 | 1010.7 |
| 20260504224404 | 57 | 83 | 0.0 | 2.0 | 0.00 | 0.00 | 0.00 | 50 | 1010.8 |
| 20260504223904 | 56 | 78 | 1.0 | 3.0 | 0.00 | 0.00 | 0.00 | 50 | 1010.8 |
| 20260504222905 | 56 | 69 | 1.0 | 3.0 | 0.00 | 0.00 | 0.00 | 51 | 1010.8 |
| 20260504222404 | 56 | 61 | 0.0 | 2.0 | 0.00 | 0.00 | 0.00 | 51 | 1010.9 |
| 20260504221904 | 56 | 65 | 1.0 | 2.0 | 0.00 | 0.00 | 0.00 | 51 | 1011.0 |
| 20260504221404 | 56 | 107 | 0.0 | 2.0 | 0.00 | 0.00 | 0.00 | 52 | 1011.0 |
| 20260504220904 | 56 | 107 | 1.0 | 2.0 | 0.00 | 0.00 | 0.00 | 52 | 1011.1 |
| 20260504220418 | 56 | 83 | 1.0 | 2.0 | 0.00 | 0.00 | 0.00 | 53 | 1011.1 |
| 20260504215404 | 56 | 80 | 0.0 | 2.0 | 0.00 | 0.00 | 0.00 | 52 | 1011.1 |
| 20260504214404 | 56 | 74 | 0.0 | 3.0 | 0.00 | 0.00 | 0.00 | 52 | 1011.1 |
| 20260504213404 | 57 | 74 | 1.0 | 2.0 | 0.00 | 0.00 | 0.00 | 52 | 1011.1 |
| 20260504212904 | 57 | 74 | 1.0 | 2.0 | 0.00 | 0.00 | 0.00 | 52 | 1011.1 |
| 20260504212404 | 57 | 73 | 2.0 | 3.0 | 0.00 | 0.00 | 0.00 | 52 | 1011.2 |
| 20260504211904 | 57 | 73 | 2.0 | 3.0 | 0.00 | 0.00 | 0.00 | 52 | 1011.2 |
| 20260504210904 | 57 | 71 | 1.0 | 3.0 | 0.00 | 0.00 | 0.00 | 51 | 1011.3 |
| 20260504210405 | 57 | 74 | 2.0 | 3.0 | 0.00 | 0.00 | 0.00 | 51 | 1011.3 |
| 20260504205905 | 58 | 74 | 2.0 | 3.0 | 0.00 | 0.00 | 0.00 | 51 | 1011.3 |
| 20260504205404 | 58 | 74 | 1.0 | 2.0 | 0.00 | 0.00 | 0.00 | 50 | 1011.3 |
| 20260504204904 | 58 | 67 | 1.0 | 3.0 | 0.00 | 0.00 | 0.00 | 50 | 1011.3 |
| 20260504204404 | 58 | 66 | 1.0 | 3.0 | 0.00 | 0.00 | 0.00 | 50 | 1011.3 |
| 20260504203904 | 58 | 66 | 2.0 | 3.0 | 0.00 | 0.00 | 0.00 | 50 | 1011.3 |
| 20260504203404 | 58 | 66 | 2.0 | 3.0 | 0.00 | 0.00 | 0.00 | 49 | 1011.2 |
| 20260504202904 | 59 | 69 | 3.0 | 3.0 | 0.00 | 0.00 | 0.00 | 49 | 1011.2 |
| 20260504202404 | 59 | 66 | 3.0 | 3.0 | 0.00 | 0.00 | 0.00 | 49 | 1011.1 |
| 20260504201904 | 59 | 56 | 2.0 | 5.0 | 0.00 | 0.00 | 0.00 | 50 | 1011.2 |
| 20260504201404 | 59 | 57 | 2.0 | 3.0 | 0.00 | 0.00 | 0.00 | 49 | 1011.2 |
| 20260504200904 | 59 | 59 | 2.0 | 3.0 | 0.00 | 0.00 | 0.00 | 49 | 1011.2 |
| 20260504200404 | 60 | 59 | 2.0 | 3.0 | 0.00 | 0.00 | 0.00 | 48 | 1011.2 |
| 20260504195904 | 60 | 65 | 2.0 | 3.0 | 0.00 | 0.00 | 0.00 | 48 | 1011.1 |
| 20260504195404 | 60 | 65 | 2.0 | 3.0 | 0.00 | 0.00 | 0.00 | 47 | 1011.2 |
| 20260504194904 | 60 | 65 | 2.0 | 3.0 | 0.00 | 0.00 | 0.00 | 47 | 1011.2 |
| 20260504194404 | 60 | 63 | 2.0 | 3.0 | 0.00 | 0.00 | 0.00 | 47 | 1011.1 |
| 20260504193404 | 61 | 61 | 2.0 | 3.0 | 0.00 | 0.00 | 0.00 | 47 | 1011.2 |
| 20260504192904 | 61 | 59 | 2.0 | 3.0 | 0.00 | 0.00 | 0.00 | 46 | 1011.2 |
| 20260504192404 | 62 | 57 | 3.0 | 3.0 | 0.00 | 0.00 | 0.00 | 46 | 1011.2 |
| 20260504191905 | 62 | 44 | 2.0 | 3.0 | 0.00 | 0.00 | 0.00 | 45 | 1011.1 |
| 20260504190905 | 64 | 61 | 2.0 | 3.0 | 0.00 | 0.00 | 0.00 | 45 | 1011.1 |
| 20260504190404 | 64 | 61 | 1.0 | 3.0 | 0.00 | 0.00 | 0.00 | 44 | 1011.1 |
| 20260504185904 | 65 | 61 | 1.0 | 3.0 | 0.00 | 0.00 | 0.00 | 44 | 1011.0 |
| 20260504184904 | 66 | 61 | 2.0 | 3.0 | 0.00 | 0.00 | 0.00 | 42 | 1011.0 |
| 20260504184404 | 66 | 63 | 1.0 | 3.0 | 0.00 | 0.00 | 0.00 | 42 | 1011.0 |
| 20260504183904 | 67 | 63 | 1.0 | 3.0 | 0.00 | 0.00 | 0.00 | 42 | 1010.9 |
| 20260504183405 | 68 | 63 | 2.0 | 3.0 | 0.00 | 0.00 | 0.00 | 41 | 1010.9 |
| 20260504182405 | 69 | 77 | 2.0 | 3.0 | 0.00 | 0.00 | 0.00 | 39 | 1010.8 |
| 20260504181905 | 70 | 80 | 1.0 | 3.0 | 0.00 | 0.00 | 0.00 | 39 | 1010.8 |
| 20260504181405 | 71 | 95 | 2.0 | 3.0 | 0.00 | 0.00 | 0.00 | 38 | 1010.8 |
| 20260504180905 | 71 | 103 | 2.0 | 3.0 | 0.00 | 0.00 | 0.00 | 37 | 1010.8 |
| 20260504180404 | 72 | 103 | 1.0 | 3.0 | 0.00 | 0.00 | 0.00 | 36 | 1010.8 |
| 20260504175904 | 72 | 103 | 1.0 | 2.0 | 0.00 | 0.00 | 0.00 | 35 | 1010.7 |
| 20260504174905 | 73 | 103 | 1.0 | 2.0 | 0.00 | 0.00 | 0.00 | 31 | 1010.6 |
| 20260504174404 | 73 | 103 | 0.0 | 1.0 | 0.00 | 0.00 | 0.00 | 31 | 1010.7 |
| 20260504173404 | 74 | 149 | 2.0 | 5.0 | 0.00 | 0.00 | 0.00 | 30 | 1010.6 |
| 20260504172918 | 74 | 142 | 1.0 | 5.0 | 0.00 | 0.00 | 0.00 | 29 | 1010.6 |
| 20260504172404 | 74 | 148 | 2.0 | 5.0 | 0.00 | 0.00 | 0.00 | 29 | 1010.6 |
| 20260504171904 | 74 | 120 | 1.0 | 5.0 | 0.00 | 0.00 | 0.00 | 30 | 1010.6 |
| 20260504171411 | 75 | 152 | 2.0 | 7.0 | 0.00 | 0.00 | 0.00 | 30 | 1010.5 |
| 20260504170904 | 75 | 175 | 1.0 | 5.0 | 0.00 | 0.00 | 0.00 | 29 | 1010.6 |
| 20260504170404 | 75 | 128 | 3.0 | 8.0 | 0.00 | 0.00 | 0.00 | 29 | 1010.5 |
| 20260504150904 | 80 | 145 | 3.0 | 12.0 | 0.00 | 0.00 | 0.00 | 30 | 1011.0 |
| 20260504150404 | 80 | 124 | 4.0 | 8.0 | 0.00 | 0.00 | 0.00 | 31 | 1010.9 |
| 20260504140904 | 80 | 178 | 3.0 | 10.0 | 0.00 | 0.00 | 0.00 | 32 | 1011.4 |